| time (UTC) | temp F | wind direction | speed knots | gust knots | rain 1hr in | rain 24hr in | rain mn in | humidity % | barometer mb |
| 20260831024518 | 64 | 173 | 0.0 | 0.9 | 0.00 | 0.00 | 0.00 | 99 | 1022.4 |
| 20260831023515 | 64 | 126 | 0.0 | 1.7 | 0.00 | 0.00 | 0.00 | 99 | 1022.6 |
| 20260831022515 | 64 | 157 | 0.0 | 0.9 | 0.00 | 0.00 | 0.00 | 99 | 1022.4 |
| 20260831021515 | 64 | 161 | 0.0 | 1.7 | 0.00 | 0.00 | 0.00 | 99 | 1022.6 |
| 20260831020512 | 64 | 38 | 0.0 | 0.9 | 0.00 | 0.00 | 0.00 | 99 | 1022.8 |
| 20260831015508 | 64 | 202 | 0.0 | 1.7 | 0.00 | 0.00 | 0.00 | 99 | 1022.8 |
| 20260831014504 | 64 | 202 | 0.0 | 2.6 | 0.00 | 0.00 | 0.00 | 99 | 1022.6 |
| 20260831013501 | 64 | 168 | 0.0 | 0.9 | 0.00 | 0.00 | 0.00 | 99 | 1022.6 |
| 20260831012456 | 64 | 76 | 0.0 | 1.7 | 0.00 | 0.00 | 0.00 | 99 | 1022.6 |
| 20260831011456 | 65 | 173 | 0.0 | 1.7 | 0.00 | 0.00 | 0.00 | 99 | 1022.5 |
| 20260831010452 | 65 | 110 | 0.0 | 0.9 | 0.00 | 0.00 | 0.00 | 99 | 1022.6 |
| 20260831005450 | 65 | 158 | 0.9 | 0.9 | 0.00 | 0.00 | 0.00 | 99 | 1022.1 |
| 20260831004446 | 65 | 142 | 0.0 | 1.7 | 0.00 | 0.00 | 0.00 | 99 | 1022.3 |
| 20260831003443 | 65 | 55 | 0.0 | 1.7 | 0.00 | 0.00 | 0.00 | 99 | 1021.9 |
| 20260831002441 | 65 | 14 | 0.0 | 0.9 | 0.00 | 0.00 | 0.00 | 99 | 1021.4 |
| 20260831001438 | 65 | 188 | 0.0 | 1.7 | 0.00 | 0.00 | 0.00 | 99 | 1021.7 |
| 20260831000436 | 65 | 135 | 0.0 | 0.9 | 0.00 | 0.00 | 0.00 | 99 | 1021.3 |
| 20260830235436 | 66 | 350 | 0.0 | 1.7 | 0.00 | 0.00 | 0.00 | 99 | 1021.6 |
| 20260830234432 | 66 | 150 | 0.0 | 1.7 | 0.00 | 0.00 | 0.00 | 98 | 1021.2 |
| 20260830233429 | 66 | 178 | 0.0 | 1.7 | 0.00 | 0.00 | 0.00 | 98 | 1021.4 |
| 20260830232426 | 66 | 126 | 0.0 | 0.9 | 0.00 | 0.00 | 0.00 | 98 | 1021.4 |
| 20260830231423 | 66 | 152 | 0.0 | 0.9 | 0.00 | 0.00 | 0.00 | 97 | 1021.6 |
| 20260830230418 | 66 | 174 | 0.9 | 1.7 | 0.00 | 0.00 | 0.00 | 97 | 1021.4 |
| 20260830225413 | 67 | 337 | 0.9 | 1.7 | 0.00 | 0.00 | 0.00 | 96 | 1021.8 |
| 20260830224412 | 67 | 133 | 0.0 | 0.9 | 0.00 | 0.00 | 0.00 | 96 | 1021.7 |
| 20260830223411 | 67 | 156 | 0.0 | 1.7 | 0.00 | 0.00 | 0.00 | 96 | 1021.6 |
| 20260830222406 | 67 | 150 | 1.7 | 1.7 | 0.00 | 0.00 | 0.00 | 96 | 1021.3 |
| 20260830221403 | 66 | 64 | 0.9 | 2.6 | 0.00 | 0.00 | 0.00 | 95 | 1021.5 |
| 20260830220358 | 67 | 83 | 3.5 | 3.5 | 0.00 | 0.00 | 0.00 | 95 | 1021.6 |
| 20260830215356 | 67 | 335 | 0.9 | 2.6 | 0.00 | 0.00 | 0.00 | 95 | 1021.5 |
| 20260830214352 | 68 | 69 | 2.6 | 3.5 | 0.00 | 0.00 | 0.00 | 94 | 1021.5 |
| 20260830213348 | 68 | 26 | 1.7 | 1.7 | 0.00 | 0.00 | 0.00 | 94 | 1021.7 |
| 20260830212345 | 68 | 359 | 1.7 | 3.5 | 0.00 | 0.00 | 0.00 | 93 | 1021.7 |
| 20260830211344 | 68 | 346 | 3.5 | 3.5 | 0.00 | 0.00 | 0.00 | 92 | 1021.5 |
| 20260830210339 | 69 | 353 | 3.5 | 4.3 | 0.00 | 0.00 | 0.00 | 89 | 1021.4 |
| 20260830205336 | 69 | 343 | 0.0 | 1.7 | 0.00 | 0.00 | 0.00 | 88 | 1021.3 |
| 20260830204336 | 70 | 113 | 0.0 | 0.0 | 0.00 | 0.00 | 0.00 | 86 | 1021.4 |
| 20260830203334 | 70 | 37 | 0.0 | 1.7 | 0.00 | 0.00 | 0.00 | 84 | 1021.2 |
| 20260830202329 | 70 | 191 | 2.6 | 3.5 | 0.00 | 0.00 | 0.00 | 84 | 1021.2 |
| 20260830201324 | 70 | 218 | 1.7 | 5.2 | 0.00 | 0.00 | 0.00 | 84 | 1021.0 |
| 20260830200319 | 71 | 221 | 1.7 | 5.2 | 0.00 | 0.00 | 0.00 | 84 | 1021.1 |
| 20260830195314 | 71 | 238 | 1.7 | 3.5 | 0.00 | 0.00 | 0.00 | 83 | 1021.1 |
| 20260830194312 | 71 | 180 | 0.9 | 3.5 | 0.00 | 0.00 | 0.00 | 82 | 1021.4 |
| 20260830193307 | 72 | 201 | 1.7 | 2.6 | 0.00 | 0.00 | 0.00 | 81 | 1021.3 |
| 20260830192305 | 72 | 9 | 0.0 | 3.5 | 0.00 | 0.00 | 0.00 | 79 | 1021.1 |
| 20260830191258 | 72 | 223 | 3.5 | 4.3 | 0.00 | 0.00 | 0.00 | 78 | 1021.6 |
| 20260830190255 | 73 | 220 | 1.7 | 3.5 | 0.00 | 0.00 | 0.00 | 79 | 1021.5 |
| 20260830185255 | 74 | 171 | 1.7 | 3.5 | 0.00 | 0.00 | 0.00 | 77 | 1021.5 |
| 20260830184253 | 75 | 211 | 2.6 | 3.5 | 0.00 | 0.00 | 0.00 | 75 | 1021.6 |
| 20260830183249 | 75 | 236 | 1.7 | 5.2 | 0.00 | 0.00 | 0.00 | 76 | 1021.8 |
| 20260830182246 | 74 | 190 | 3.5 | 5.2 | 0.00 | 0.00 | 0.00 | 76 | 1021.9 |
| 20260830181243 | 73 | 187 | 2.6 | 4.3 | 0.00 | 0.00 | 0.00 | 77 | 1021.8 |
| 20260830180243 | 73 | 180 | 2.6 | 4.3 | 0.00 | 0.00 | 0.00 | 78 | 1022.0 |
| 20260830175238 | 73 | 203 | 2.6 | 5.2 | 0.00 | 0.00 | 0.00 | 78 | 1022.1 |
| 20260830174234 | 72 | 200 | 1.7 | 5.2 | 0.00 | 0.00 | 0.00 | 79 | 1022.1 |
| 20260830173229 | 72 | 183 | 0.0 | 3.5 | 0.00 | 0.00 | 0.00 | 81 | 1022.0 |
| 20260830172228 | 73 | 218 | 3.5 | 4.3 | 0.00 | 0.00 | 0.00 | 80 | 1022.3 |
| 20260830171224 | 72 | 220 | 2.6 | 5.2 | 0.00 | 0.00 | 0.00 | 79 | 1022.3 |
| 20260830170223 | 72 | 214 | 1.7 | 3.5 | 0.00 | 0.00 | 0.00 | 79 | 1022.0 |
| 20260830165219 | 73 | 192 | 4.3 | 5.2 | 0.00 | 0.00 | 0.00 | 79 | 1022.4 |
| 20260830164216 | 71 | 215 | 0.9 | 6.1 | 0.00 | 0.00 | 0.00 | 85 | 1022.3 |
| 20260830163214 | 71 | 209 | 6.1 | 6.1 | 0.00 | 0.00 | 0.00 | 81 | 1022.4 |
| 20260830162211 | 72 | 48 | 0.9 | 5.2 | 0.00 | 0.00 | 0.00 | 81 | 1022.4 |
| 20260830161206 | 71 | 213 | 6.1 | 7.0 | 0.00 | 0.00 | 0.00 | 81 | 1022.7 |
| 20260830160202 | 72 | 217 | 3.5 | 8.7 | 0.00 | 0.00 | 0.00 | 79 | 1022.6 |
| 20260830155200 | 72 | 77 | 2.6 | 5.2 | 0.00 | 0.00 | 0.00 | 78 | 1022.9 |
| 20260830154157 | 71 | 196 | 1.7 | 6.1 | 0.00 | 0.00 | 0.00 | 82 | 1023.0 |
| 20260830153154 | 72 | 198 | 6.1 | 7.8 | 0.00 | 0.00 | 0.00 | 80 | 1022.9 |
| 20260830152152 | 71 | 171 | 1.7 | 5.2 | 0.00 | 0.00 | 0.00 | 81 | 1022.9 |
| 20260830151152 | 69 | 221 | 3.5 | 7.8 | 0.00 | 0.00 | 0.00 | 84 | 1023.0 |
| 20260830150148 | 68 | 210 | 2.6 | 7.8 | 0.00 | 0.00 | 0.00 | 85 | 1023.0 |
| 20260830145148 | 68 | 196 | 4.3 | 5.2 | 0.00 | 0.00 | 0.00 | 84 | 1022.9 |
| 20260830144145 | 69 | 202 | 3.5 | 6.1 | 0.00 | 0.00 | 0.00 | 84 | 1022.9 |
| 20260830143145 | 68 | 197 | 1.7 | 4.3 | 0.00 | 0.00 | 0.00 | 84 | 1022.6 |
| 20260830142141 | 68 | 167 | 0.9 | 5.2 | 0.00 | 0.00 | 0.00 | 85 | 1022.7 |
| 20260830141137 | 68 | 197 | 2.6 | 6.1 | 0.00 | 0.00 | 0.00 | 84 | 1022.5 |
| 20260830140133 | 68 | 206 | 7.0 | 9.6 | 0.00 | 0.00 | 0.00 | 83 | 1022.6 |
| 20260830135128 | 67 | 190 | 0.9 | 7.0 | 0.00 | 0.00 | 0.00 | 83 | 1023.0 |
| 20260830134125 | 67 | 201 | 9.6 | 9.6 | 0.00 | 0.00 | 0.00 | 84 | 1023.1 |
| 20260830133121 | 66 | 206 | 4.3 | 6.1 | 0.00 | 0.00 | 0.00 | 87 | 1023.1 |
| 20260830132119 | 66 | 197 | 3.5 | 6.1 | 0.00 | 0.00 | 0.00 | 86 | 1023.0 |
| 20260830131119 | 65 | 188 | 0.9 | 5.2 | 0.00 | 0.00 | 0.00 | 87 | 1023.2 |
| 20260830130114 | 65 | 201 | 4.3 | 6.1 | 0.00 | 0.00 | 0.00 | 87 | 1023.1 |
| 20260830125114 | 65 | 186 | 1.7 | 6.1 | 0.00 | 0.00 | 0.00 | 87 | 1023.0 |
| 20260830124113 | 65 | 191 | 2.6 | 5.2 | 0.00 | 0.00 | 0.00 | 87 | 1023.3 |
| 20260830123111 | 65 | 178 | 1.7 | 5.2 | 0.00 | 0.00 | 0.00 | 86 | 1023.2 |
| 20260830122110 | 64 | 192 | 2.6 | 7.0 | 0.00 | 0.00 | 0.00 | 87 | 1023.2 |
| 20260830121105 | 63 | 194 | 3.5 | 4.3 | 0.00 | 0.00 | 0.00 | 87 | 1023.4 |
| 20260830115059 | 61 | 195 | 2.6 | 3.5 | 0.00 | 0.00 | 0.00 | 87 | 1023.3 |
| 20260830114055 | 61 | 201 | 2.6 | 4.3 | 0.00 | 0.00 | 0.00 | 86 | 1023.3 |
| 20260830113051 | 63 | 196 | 2.6 | 3.5 | 0.00 | 0.00 | 0.00 | 83 | 1023.6 |
| 20260830112049 | 61 | 214 | 2.6 | 4.3 | 0.00 | 0.00 | 0.00 | 85 | 1023.5 |
| 20260830111047 | 61 | 202 | 3.5 | 3.5 | 0.00 | 0.00 | 0.00 | 85 | 1023.4 |
| 20260830110042 | 60 | 191 | 2.6 | 4.3 | 0.00 | 0.00 | 0.00 | 85 | 1023.6 |
| 20260830105038 | 60 | 190 | 2.6 | 5.2 | 0.00 | 0.00 | 0.00 | 84 | 1023.6 |
| 20260830104037 | 60 | 203 | 4.3 | 4.3 | 0.00 | 0.00 | 0.00 | 84 | 1023.5 |
| 20260830103037 | 60 | 190 | 1.7 | 3.5 | 0.00 | 0.00 | 0.00 | 83 | 1023.5 |
| 20260830102032 | 60 | 164 | 1.7 | 2.6 | 0.00 | 0.00 | 0.00 | 82 | 1023.4 |
| 20260830101027 | 60 | 138 | 0.9 | 1.7 | 0.00 | 0.00 | 0.00 | 82 | 1023.8 |
| 20260830100026 | 60 | 116 | 0.9 | 1.7 | 0.00 | 0.00 | 0.00 | 81 | 1023.7 |
| 20260830095023 | 59 | 140 | 0.9 | 2.6 | 0.00 | 0.00 | 0.00 | 81 | 1023.6 |
| 20260830094020 | 59 | 123 | 1.7 | 1.7 | 0.00 | 0.00 | 0.00 | 83 | 1023.7 |
| 20260830093019 | 60 | 101 | 0.9 | 2.6 | 0.00 | 0.00 | 0.00 | 81 | 1023.7 |
| 20260830092015 | 60 | 131 | 1.7 | 2.6 | 0.00 | 0.00 | 0.00 | 81 | 1023.7 |
| 20260830091014 | 60 | 121 | 1.7 | 1.7 | 0.00 | 0.00 | 0.00 | 81 | 1023.7 |
| 20260830090011 | 59 | 135 | 0.9 | 1.7 | 0.00 | 0.00 | 0.00 | 81 | 1023.7 |
| 20260830085007 | 60 | 86 | 0.0 | 1.7 | 0.00 | 0.00 | 0.00 | 80 | 1024.0 |
| 20260830084003 | 60 | 184 | 0.9 | 2.6 | 0.00 | 0.00 | 0.00 | 79 | 1024.2 |
| 20260830082958 | 60 | 187 | 0.0 | 1.7 | 0.00 | 0.00 | 0.00 | 80 | 1023.9 |
| 20260830081954 | 59 | 100 | 0.0 | 1.7 | 0.00 | 0.00 | 0.00 | 81 | 1024.0 |
| 20260830080949 | 60 | 209 | 0.9 | 2.6 | 0.00 | 0.00 | 0.00 | 83 | 1024.0 |
| 20260830075944 | 60 | 188 | 0.0 | 1.7 | 0.00 | 0.00 | 0.00 | 81 | 1024.1 |
| 20260830074941 | 59 | 138 | 0.0 | 1.7 | 0.00 | 0.00 | 0.00 | 82 | 1024.2 |
| 20260830073938 | 59 | 154 | 1.7 | 2.6 | 0.00 | 0.00 | 0.00 | 83 | 1024.2 |
| 20260830072934 | 60 | 255 | 1.7 | 2.6 | 0.00 | 0.00 | 0.00 | 81 | 1024.2 |
| 20260830071930 | 60 | 155 | 1.7 | 1.7 | 0.00 | 0.00 | 0.00 | 80 | 1024.5 |
| 20260830070929 | 59 | 49 | 0.0 | 1.7 | 0.00 | 0.00 | 0.00 | 82 | 1024.5 |
| 20260830065929 | 60 | 100 | 0.0 | 1.7 | 0.00 | 0.00 | 0.00 | 81 | 1024.6 |
| 20260830064927 | 60 | 186 | 1.7 | 1.7 | 0.00 | 0.00 | 0.00 | 81 | 1024.4 |
| 20260830063923 | 60 | 197 | 1.7 | 2.6 | 0.00 | 0.00 | 0.00 | 79 | 1024.1 |
| 20260830062922 | 60 | 178 | 1.7 | 2.6 | 0.00 | 0.00 | 0.00 | 79 | 1024.0 |
| 20260830061917 | 60 | 98 | 1.7 | 1.7 | 0.00 | 0.00 | 0.00 | 80 | 1024.1 |
| 20260830060914 | 59 | 199 | 0.0 | 1.7 | 0.00 | 0.00 | 0.00 | 83 | 1024.4 |
| 20260830055911 | 59 | 213 | 1.7 | 2.6 | 0.00 | 0.00 | 0.00 | 84 | 1024.5 |
| 20260830054908 | 58 | 174 | 0.0 | 1.7 | 0.00 | 0.00 | 0.00 | 86 | 1024.5 |
| 20260830053905 | 59 | 166 | 0.0 | 1.7 | 0.00 | 0.00 | 0.00 | 83 | 1024.4 |
| 20260830052859 | 59 | 120 | 0.0 | 3.5 | 0.00 | 0.00 | 0.00 | 82 | 1024.2 |
| 20260830051856 | 57 | 118 | 0.0 | 1.7 | 0.00 | 0.00 | 0.00 | 88 | 1024.4 |
| 20260830050856 | 57 | 95 | 0.0 | 1.7 | 0.00 | 0.00 | 0.00 | 88 | 1024.2 |
| 20260830045855 | 57 | 85 | 0.0 | 1.7 | 0.00 | 0.00 | 0.00 | 90 | 1024.7 |
| 20260830044855 | 58 | 181 | 0.0 | 1.7 | 0.00 | 0.00 | 0.00 | 87 | 1024.7 |
| 20260830043852 | 59 | 172 | 0.9 | 1.7 | 0.00 | 0.00 | 0.00 | 86 | 1024.5 |
| 20260830042850 | 59 | 113 | 0.0 | 1.7 | 0.00 | 0.00 | 0.00 | 84 | 1024.6 |
| 20260830041850 | 58 | 186 | 0.0 | 1.7 | 0.00 | 0.00 | 0.00 | 86 | 1024.7 |
| 20260830040845 | 58 | 51 | 0.0 | 1.7 | 0.00 | 0.00 | 0.00 | 87 | 1024.8 |
| 20260830035840 | 59 | 206 | 1.7 | 1.7 | 0.00 | 0.00 | 0.00 | 87 | 1024.6 |
| 20260830034840 | 59 | 202 | 1.7 | 3.5 | 0.00 | 0.00 | 0.00 | 85 | 1024.7 |
| 20260830033837 | 60 | 193 | 1.7 | 3.5 | 0.00 | 0.00 | 0.00 | 84 | 1024.5 |
| 20260830032832 | 60 | 197 | 1.7 | 3.5 | 0.00 | 0.00 | 0.00 | 84 | 1024.4 |
| 20260830031827 | 60 | 124 | 0.0 | 1.7 | 0.00 | 0.00 | 0.00 | 84 | 1024.4 |
| 20260830030824 | 59 | 111 | 0.0 | 1.7 | 0.00 | 0.00 | 0.00 | 86 | 1024.4 |
| 20260830025824 | 58 | 126 | 0.0 | 1.7 | 0.00 | 0.00 | 0.00 | 87 | 1024.6 |